Time,TemperatureF,DewpointF,PressureIn,WindDirection,WindDirectionDegrees,WindSpeedMPH,WindSpeedGustMPH,Humidity,HourlyPrecipIn,Conditions,Clouds,dailyrainin,SolarRadiationWatts/m^2,SoftwareType,DateUTC
2013-04-12 00:03:00,58.1,51.6,29.82,SSE,155,5.8,5.8,79,0.00,CLR,,0.00,0.0,WeatherDisplay:10.37,2013-04-12 07:03:00,
2013-04-12 00:08:00,58.1,51.6,29.82,SE,136,6.9,6.9,79,0.00,CLR,,0.00,0.0,WeatherDisplay:10.37,2013-04-12 07:08:00,
2013-04-12 00:13:00,58.1,51.6,29.82,South,169,5.8,5.8,79,0.00,CLR,,0.00,0.0,WeatherDisplay:10.37,2013-04-12 07:13:00,
2013-04-12 00:18:00,58.1,51.6,29.82,SSE,164,5.0,5.0,79,0.00,CLR,,0.00,0.0,WeatherDisplay:10.37,2013-04-12 07:18:00,
2013-04-12 00:23:00,58.0,51.5,29.82,SSE,164,3.5,3.5,79,0.00,CLR,,0.00,0.0,WeatherDisplay:10.37,2013-04-12 07:23:00,
2013-04-12 00:28:00,57.9,51.8,29.82,SSE,161,4.6,4.6,80,0.00,CLR,,0.00,0.0,WeatherDisplay:10.37,2013-04-12 07:28:00,
2013-04-12 00:33:00,57.9,51.8,29.82,SSE,163,2.3,2.3,80,0.00,CLR,,0.00,0.0,WeatherDisplay:10.37,2013-04-12 07:33:00,
2013-04-12 00:38:00,57.9,51.8,29.82,SSE,162,2.3,2.3,80,0.00,CLR,,0.00,0.0,WeatherDisplay:10.37,2013-04-12 07:38:00,
2013-04-12 00:43:00,57.9,51.8,29.82,SE,131,4.6,4.6,80,0.00,CLR,,0.00,0.0,WeatherDisplay:10.37,2013-04-12 07:43:00,
2013-04-12 00:48:00,57.9,51.8,29.82,SE,130,4.0,4.0,80,0.00,CLR,,0.00,0.0,WeatherDisplay:10.37,2013-04-12 07:48:00,
2013-04-12 00:53:00,57.9,51.8,29.82,SE,134,3.5,3.5,80,0.00,CLR,,0.00,0.0,WeatherDisplay:10.37,2013-04-12 07:53:00,
2013-04-12 00:58:00,57.9,51.8,29.82,ESE,123,6.9,6.9,80,0.00,CLR,,0.00,0.0,WeatherDisplay:10.37,2013-04-12 07:58:00,
2013-04-12 01:03:00,57.9,51.8,29.82,SE,126,2.3,2.3,80,0.00,CLR,,0.00,0.0,WeatherDisplay:10.37,2013-04-12 08:03:00,
2013-04-12 01:08:00,57.9,51.8,29.82,SE,132,6.0,6.0,80,0.00,CLR,,0.00,0.0,WeatherDisplay:10.37,2013-04-12 08:08:00,
2013-04-12 01:13:00,57.9,51.8,29.82,SE,136,3.5,3.5,80,0.00,CLR,,0.00,0.0,WeatherDisplay:10.37,2013-04-12 08:13:00,
2013-04-12 01:18:00,57.9,51.4,29.82,ESE,111,5.8,5.8,79,0.00,CLR,,0.00,0.0,WeatherDisplay:10.37,2013-04-12 08:18:00,
2013-04-12 01:23:00,57.9,51.4,29.82,ESE,121,5.0,5.0,79,0.00,CLR,,0.00,0.0,WeatherDisplay:10.37,2013-04-12 08:23:00,
2013-04-12 01:28:00,57.9,51.4,29.82,SE,143,5.8,5.8,79,0.00,CLR,,0.00,0.0,WeatherDisplay:10.37,2013-04-12 08:28:00,
2013-04-12 01:33:00,57.9,51.4,29.81,ESE,107,6.0,6.0,79,0.00,CLR,,0.00,0.0,WeatherDisplay:10.37,2013-04-12 08:33:00,
2013-04-12 01:38:00,57.8,51.3,29.81,ESE,121,3.5,3.5,79,0.00,CLR,,0.00,0.0,WeatherDisplay:10.37,2013-04-12 08:38:00,
2013-04-12 01:43:00,57.8,51.3,29.82,SE,139,5.8,5.8,79,0.00,CLR,,0.00,0.0,WeatherDisplay:10.37,2013-04-12 08:43:00,
2013-04-12 01:48:00,57.7,51.2,29.81,SE,136,3.5,3.5,79,0.00,CLR,,0.00,0.0,WeatherDisplay:10.37,2013-04-12 08:48:00,
2013-04-12 01:53:00,57.7,51.2,29.81,SE,136,2.3,2.3,79,0.00,CLR,,0.00,0.0,WeatherDisplay:10.37,2013-04-12 08:53:00,
2013-04-12 01:58:00,57.6,51.1,29.81,SE,135,3.5,3.5,79,0.00,CLR,,0.00,0.0,WeatherDisplay:10.37,2013-04-12 08:58:00,
2013-04-12 02:03:00,57.6,51.1,29.81,SSE,160,4.0,4.0,79,0.00,CLR,,0.00,0.0,WeatherDisplay:10.37,2013-04-12 09:03:00,
2013-04-12 02:08:00,57.5,51.0,29.81,SSE,160,2.3,2.3,79,0.00,CLR,,0.00,0.0,WeatherDisplay:10.37,2013-04-12 09:08:00,
2013-04-12 02:13:00,57.5,51.0,29.81,SSE,157,3.5,3.5,79,0.00,CLR,,0.00,0.0,WeatherDisplay:10.37,2013-04-12 09:13:00,
2013-04-12 02:18:00,57.5,51.4,29.81,SSE,150,3.0,3.0,80,0.00,CLR,,0.00,0.0,WeatherDisplay:10.37,2013-04-12 09:18:00,
2013-04-12 02:23:00,57.5,51.4,29.81,SSE,150,1.1,1.1,80,0.00,CLR,,0.00,0.0,WeatherDisplay:10.37,2013-04-12 09:23:00,
2013-04-12 02:28:00,57.5,51.4,29.81,SSE,150,3.5,3.5,80,0.00,CLR,,0.00,0.0,WeatherDisplay:10.37,2013-04-12 09:28:00,
2013-04-12 02:33:00,57.6,51.5,29.81,SSE,162,3.5,3.5,80,0.00,CLR,,0.00,0.0,WeatherDisplay:10.37,2013-04-12 09:33:00,
2013-04-12 02:38:00,57.6,51.5,29.81,SSE,165,3.5,3.5,80,0.00,CLR,,0.00,0.0,WeatherDisplay:10.37,2013-04-12 09:38:00,
2013-04-12 02:43:00,57.7,51.6,29.81,SSE,163,3.5,3.5,80,0.00,CLR,,0.00,0.0,WeatherDisplay:10.37,2013-04-12 09:43:00,
2013-04-12 02:48:00,57.8,51.3,29.81,SSE,165,3.5,3.5,79,0.00,CLR,,0.00,0.0,WeatherDisplay:10.37,2013-04-12 09:48:00,
2013-04-12 02:53:00,57.8,51.3,29.81,SSE,162,3.5,3.5,79,0.00,CLR,,0.00,0.0,WeatherDisplay:10.37,2013-04-12 09:53:00,
2013-04-12 02:58:00,57.8,51.3,29.81,SSE,147,5.0,5.0,79,0.00,CLR,,0.00,0.0,WeatherDisplay:10.37,2013-04-12 09:58:00,
2013-04-12 03:03:00,57.8,51.3,29.81,South,173,3.5,3.5,79,0.00,CLR,,0.00,0.0,WeatherDisplay:10.37,2013-04-12 10:03:00,
2013-04-12 03:08:00,57.9,51.4,29.81,SSE,165,5.8,5.8,79,0.00,CLR,,0.00,0.0,WeatherDisplay:10.37,2013-04-12 10:08:00,
2013-04-12 03:13:00,57.8,51.3,29.81,SSE,150,1.1,1.1,79,0.00,CLR,,0.00,0.0,WeatherDisplay:10.37,2013-04-12 10:13:00,
2013-04-12 03:18:00,57.9,51.4,29.82,SSE,165,3.5,3.5,79,0.00,CLR,,0.00,0.0,WeatherDisplay:10.37,2013-04-12 10:18:00,
2013-04-12 03:23:00,57.8,51.3,29.82,SSE,159,3.5,3.5,79,0.00,CLR,,0.00,0.0,WeatherDisplay:10.37,2013-04-12 10:23:00,
2013-04-12 03:28:00,57.8,51.3,29.82,SSE,157,4.0,4.0,79,0.00,CLR,,0.00,0.0,WeatherDisplay:10.37,2013-04-12 10:28:00,
2013-04-12 03:33:00,57.8,51.3,29.82,SSE,156,4.6,4.6,79,0.00,CLR,,0.00,0.0,WeatherDisplay:10.37,2013-04-12 10:33:00,
2013-04-12 03:38:00,57.7,51.2,29.82,SSE,167,4.6,4.6,79,0.00,CLR,,0.00,0.0,WeatherDisplay:10.37,2013-04-12 10:38:00,
2013-04-12 03:43:00,57.7,51.2,29.82,SSE,165,3.5,3.5,79,0.00,CLR,,0.00,0.0,WeatherDisplay:10.37,2013-04-12 10:43:00,
2013-04-12 03:48:00,57.7,51.2,29.82,South,188,5.0,5.0,79,0.00,CLR,,0.00,0.0,WeatherDisplay:10.37,2013-04-12 10:48:00,
2013-04-12 03:53:00,57.8,51.3,29.81,South,180,4.0,4.0,79,0.00,CLR,,0.00,0.0,WeatherDisplay:10.37,2013-04-12 10:53:00,
2013-04-12 03:58:00,57.8,51.3,29.81,South,176,2.3,2.3,79,0.00,CLR,,0.00,0.0,WeatherDisplay:10.37,2013-04-12 10:58:00,
2013-04-12 04:03:00,57.8,51.3,29.81,South,176,2.3,2.3,79,0.00,CLR,,0.00,0.0,WeatherDisplay:10.37,2013-04-12 11:03:00,
2013-04-12 04:08:00,57.8,51.3,29.81,SSE,167,3.0,3.0,79,0.00,CLR,,0.00,0.0,WeatherDisplay:10.37,2013-04-12 11:08:00,
2013-04-12 04:13:00,57.8,51.3,29.81,SSE,167,2.3,2.3,79,0.00,CLR,,0.00,0.0,WeatherDisplay:10.37,2013-04-12 11:13:00,
2013-04-12 04:18:00,57.7,51.2,29.81,SSE,167,1.1,0.0,79,0.00,CLR,,0.00,0.0,WeatherDisplay:10.37,2013-04-12 11:18:00,
2013-04-12 04:23:00,57.7,51.2,29.81,SSE,167,2.0,2.0,79,0.00,CLR,,0.00,0.0,WeatherDisplay:10.37,2013-04-12 11:23:00,
2013-04-12 04:28:00,57.8,51.3,29.81,SSE,166,2.3,2.3,79,0.00,CLR,,0.00,0.0,WeatherDisplay:10.37,2013-04-12 11:28:00,
2013-04-12 04:33:00,57.8,51.3,29.81,SSE,166,2.3,2.3,79,0.00,CLR,,0.00,0.0,WeatherDisplay:10.37,2013-04-12 11:33:00,
2013-04-12 04:38:00,57.8,51.3,29.81,SSE,166,3.5,3.5,79,0.00,CLR,,0.00,0.0,WeatherDisplay:10.37,2013-04-12 11:38:00,
2013-04-12 04:43:00,57.7,51.2,29.81,SSE,166,2.3,2.3,79,0.00,CLR,,0.00,0.0,WeatherDisplay:10.37,2013-04-12 11:43:00,
2013-04-12 04:48:00,57.7,51.2,29.81,South,169,3.5,3.5,79,0.00,CLR,,0.00,0.0,WeatherDisplay:10.37,2013-04-12 11:48:00,
2013-04-12 04:53:00,57.8,51.3,29.81,South,169,3.5,3.5,79,0.00,CLR,,0.00,0.0,WeatherDisplay:10.37,2013-04-12 11:53:00,
2013-04-12 04:58:00,57.8,51.3,29.81,SSE,165,4.6,4.6,79,0.00,CLR,,0.00,0.0,WeatherDisplay:10.37,2013-04-12 11:58:00,
2013-04-12 05:03:00,57.7,51.2,29.80,SSE,164,4.6,4.6,79,0.00,CLR,,0.00,0.0,WeatherDisplay:10.37,2013-04-12 12:03:00,
2013-04-12 05:08:00,57.6,51.1,29.80,SSE,164,1.1,0.0,79,0.00,CLR,,0.00,0.0,WeatherDisplay:10.37,2013-04-12 12:08:00,
2013-04-12 05:14:00,57.6,51.1,29.80,ESE,102,3.5,3.5,79,0.00,CLR,,0.00,0.0,WeatherDisplay:10.37,2013-04-12 12:14:00,
2013-04-12 05:19:00,57.5,51.0,29.80,East,101,3.5,3.5,79,0.00,CLR,,0.00,0.0,WeatherDisplay:10.37,2013-04-12 12:19:00,
2013-04-12 05:24:00,57.5,51.0,29.80,East,101,1.1,0.0,79,0.00,CLR,,0.00,0.0,WeatherDisplay:10.37,2013-04-12 12:24:00,
2013-04-12 05:29:00,57.5,51.0,29.80,East,101,0.0,0.0,79,0.00,CLR,,0.00,0.0,WeatherDisplay:10.37,2013-04-12 12:29:00,
2013-04-12 05:34:00,57.5,51.0,29.80,East,101,1.1,0.0,79,0.00,CLR,,0.00,0.0,WeatherDisplay:10.37,2013-04-12 12:34:00,
2013-04-12 05:39:00,57.4,50.9,29.80,East,91,3.5,3.5,79,0.00,CLR,,0.00,0.0,WeatherDisplay:10.37,2013-04-12 12:39:00,
2013-04-12 05:44:00,57.4,50.9,29.80,ESE,102,5.0,5.0,79,0.00,CLR,,0.00,0.0,WeatherDisplay:10.37,2013-04-12 12:44:00,
2013-04-12 05:49:00,57.5,51.0,29.80,East,92,3.5,3.5,79,0.00,CLR,,0.00,0.0,WeatherDisplay:10.37,2013-04-12 12:49:00,
2013-04-12 05:54:00,57.4,50.9,29.81,East,90,2.3,2.3,79,0.00,CLR,,0.00,0.0,WeatherDisplay:10.37,2013-04-12 12:54:00,
2013-04-12 05:59:00,57.4,51.3,29.81,East,84,2.3,2.3,80,0.00,CLR,,0.00,0.0,WeatherDisplay:10.37,2013-04-12 12:59:00,
2013-04-12 06:04:00,57.4,51.3,29.81,ENE,75,3.5,3.5,80,0.00,CLR,,0.00,0.0,WeatherDisplay:10.37,2013-04-12 13:04:00,
2013-04-12 06:09:00,57.4,51.3,29.81,ENE,75,1.1,1.1,80,0.00,CLR,,0.00,0.0,WeatherDisplay:10.37,2013-04-12 13:09:00,
2013-04-12 06:14:00,57.5,51.4,29.81,ENE,74,1.1,0.0,80,0.00,CLR,,0.00,0.0,WeatherDisplay:10.37,2013-04-12 13:14:00,
2013-04-12 06:19:00,57.5,51.4,29.81,ENE,74,3.0,3.0,80,0.00,CLR,,0.00,0.0,WeatherDisplay:10.37,2013-04-12 13:19:00,
2013-04-12 06:24:00,57.6,51.5,29.81,NNE,29,3.5,3.5,80,0.00,CLR,,0.00,0.0,WeatherDisplay:10.37,2013-04-12 13:24:00,
2013-04-12 06:29:00,57.6,51.1,29.82,North,349,3.5,3.5,79,0.00,CLR,,0.00,0.0,WeatherDisplay:10.37,2013-04-12 13:29:00,
2013-04-12 06:34:00,57.6,51.1,29.82,NNW,344,1.1,1.1,79,0.00,CLR,,0.00,0.0,WeatherDisplay:10.37,2013-04-12 13:34:00,
2013-04-12 06:39:00,57.6,51.1,29.83,NNW,348,2.3,2.3,79,0.00,CLR,,0.00,0.0,WeatherDisplay:10.37,2013-04-12 13:39:00,
2013-04-12 06:44:00,57.6,51.1,29.83,NNW,348,1.1,1.1,79,0.00,CLR,,0.00,0.0,WeatherDisplay:10.37,2013-04-12 13:44:00,
2013-04-12 06:49:00,57.6,51.5,29.83,NNW,348,1.1,1.1,80,0.00,CLR,,0.00,0.0,WeatherDisplay:10.37,2013-04-12 13:49:00,
2013-04-12 06:54:00,57.6,51.1,29.83,NW,317,3.5,3.5,79,0.00,BKN,,0.00,9.0,WeatherDisplay:10.37,2013-04-12 13:54:00,
2013-04-12 06:59:00,57.7,51.2,29.83,WNW,283,4.6,4.6,79,0.00,BKN,,0.00,12.0,WeatherDisplay:10.37,2013-04-12 13:59:00,
2013-04-12 07:04:00,57.7,51.2,29.83,WNW,283,2.0,2.0,79,0.00,BKN,,0.00,18.0,WeatherDisplay:10.37,2013-04-12 14:04:00,
2013-04-12 07:09:00,57.7,51.2,29.83,West,265,3.5,3.5,79,0.00,BKN,,0.00,18.0,WeatherDisplay:10.37,2013-04-12 14:09:00,
2013-04-12 07:14:00,57.7,51.2,29.83,West,265,1.0,1.0,79,0.00,BKN,,0.00,25.0,WeatherDisplay:10.37,2013-04-12 14:14:00,
2013-04-12 07:19:00,57.7,51.2,29.84,North,360,5.8,0.0,79,0.00,BKN,,0.00,26.0,WeatherDisplay:10.37,2013-04-12 14:19:00,
2013-04-12 07:24:00,57.7,51.2,29.83,NNE,28,2.3,2.3,79,0.00,BKN,,0.00,30.0,WeatherDisplay:10.37,2013-04-12 14:24:00,
2013-04-12 07:29:00,57.8,51.3,29.84,NE,42,2.3,0.0,79,0.00,BKN,,0.00,32.0,WeatherDisplay:10.37,2013-04-12 14:29:00,
2013-04-12 07:34:00,57.8,51.3,29.84,NE,42,0.0,0.0,79,0.00,BKN,,0.00,39.0,WeatherDisplay:10.37,2013-04-12 14:34:00,
2013-04-12 07:39:00,57.9,51.4,29.84,NW,308,4.0,4.0,79,0.00,BKN,,0.00,40.0,WeatherDisplay:10.37,2013-04-12 14:39:00,
2013-04-12 07:44:00,58.1,51.3,29.84,West,275,3.5,3.5,78,0.00,BKN,,0.00,47.0,WeatherDisplay:10.37,2013-04-12 14:44:00,
2013-04-12 07:49:00,58.2,51.4,29.84,WNW,288,4.6,4.6,78,0.00,BKN,,0.00,49.0,WeatherDisplay:10.37,2013-04-12 14:49:00,
2013-04-12 07:54:00,58.3,51.5,29.84,WNW,293,2.3,2.3,78,0.00,BKN,,0.00,53.0,WeatherDisplay:10.37,2013-04-12 14:54:00,
2013-04-12 07:59:00,58.3,51.5,29.84,WNW,293,1.0,0.0,78,0.00,BKN,,0.00,65.0,WeatherDisplay:10.37,2013-04-12 14:59:00,
2013-04-12 08:04:00,58.3,51.5,29.84,NW,313,4.0,4.0,78,0.00,BKN,,0.00,67.0,WeatherDisplay:10.37,2013-04-12 15:04:00,
2013-04-12 08:09:00,58.4,51.6,29.84,WNW,302,3.0,3.0,78,0.00,BKN,,0.00,67.0,WeatherDisplay:10.37,2013-04-12 15:09:00,
2013-04-12 08:14:00,58.4,51.6,29.84,WNW,288,3.5,3.5,78,0.00,BKN,,0.00,76.0,WeatherDisplay:10.37,2013-04-12 15:14:00,
2013-04-12 08:19:00,58.4,51.6,29.84,West,268,3.5,3.5,78,0.00,BKN,,0.00,86.0,WeatherDisplay:10.37,2013-04-12 15:19:00,
2013-04-12 08:24:00,58.5,51.7,29.84,West,268,2.3,2.3,78,0.00,BKN,,0.00,88.0,WeatherDisplay:10.37,2013-04-12 15:24:00,
2013-04-12 08:29:00,58.4,51.6,29.84,WNW,284,3.5,3.5,78,0.00,BKN,,0.00,102.0,WeatherDisplay:10.37,2013-04-12 15:29:00,
2013-04-12 08:34:00,58.4,51.6,29.84,NW,315,5.0,5.0,78,0.00,BKN,,0.00,116.0,WeatherDisplay:10.37,2013-04-12 15:34:00,
2013-04-12 08:39:00,58.5,51.7,29.84,WNW,301,3.5,3.5,78,0.00,BKN,,0.00,125.0,WeatherDisplay:10.37,2013-04-12 15:39:00,
2013-04-12 08:44:00,58.7,51.5,29.85,WNW,300,3.5,3.5,77,0.00,BKN,,0.00,125.0,WeatherDisplay:10.37,2013-04-12 15:44:00,
2013-04-12 08:49:00,58.8,51.6,29.85,West,275,3.5,3.5,77,0.00,BKN,,0.00,118.0,WeatherDisplay:10.37,2013-04-12 15:49:00,
2013-04-12 08:54:00,59.0,51.8,29.85,NW,306,5.0,5.0,77,0.00,BKN,,0.00,127.0,WeatherDisplay:10.37,2013-04-12 15:54:00,
2013-04-12 08:59:00,59.0,51.4,29.85,NW,308,3.5,3.5,76,0.00,BKN,,0.00,151.0,WeatherDisplay:10.37,2013-04-12 15:59:00,
2013-04-12 09:04:00,58.9,51.3,29.85,West,280,3.5,3.5,76,0.00,BKN,,0.00,179.0,WeatherDisplay:10.37,2013-04-12 16:04:00,
2013-04-12 09:09:00,59.0,51.8,29.85,West,270,2.3,2.3,77,0.00,BKN,,0.00,207.0,WeatherDisplay:10.37,2013-04-12 16:09:00,
2013-04-12 09:14:00,59.3,51.7,29.85,West,271,2.3,2.3,76,0.00,BKN,,0.00,229.0,WeatherDisplay:10.37,2013-04-12 16:14:00,
2013-04-12 09:19:00,59.5,51.6,29.85,West,271,1.1,1.1,75,0.00,BKN,,0.00,246.0,WeatherDisplay:10.37,2013-04-12 16:19:00,
2013-04-12 09:24:00,59.6,51.7,29.85,WNW,289,1.1,1.1,75,0.00,BKN,,0.00,311.0,WeatherDisplay:10.37,2013-04-12 16:24:00,
2013-04-12 09:29:00,59.9,52.0,29.85,WNW,284,2.3,2.3,75,0.00,SCT,,0.00,350.0,WeatherDisplay:10.37,2013-04-12 16:29:00,
2013-04-12 09:34:00,60.6,52.3,29.85,West,281,2.3,2.3,74,0.00,SCT,,0.00,452.0,WeatherDisplay:10.37,2013-04-12 16:34:00,
2013-04-12 09:39:00,61.1,52.4,29.85,WNW,288,1.1,1.1,73,0.00,SCT,,0.00,478.0,WeatherDisplay:10.37,2013-04-12 16:39:00,
2013-04-12 09:44:00,61.3,51.8,29.85,West,281,3.5,3.5,71,0.00,FEW,,0.00,754.0,WeatherDisplay:10.37,2013-04-12 16:44:00,
2013-04-12 09:49:00,60.9,51.4,29.86,West,271,3.5,3.5,71,0.00,CLR,,0.00,782.0,WeatherDisplay:10.37,2013-04-12 16:49:00,
2013-04-12 09:54:00,60.9,52.2,29.85,SSW,192,5.0,5.0,73,0.00,CLR,,0.00,501.0,WeatherDisplay:10.37,2013-04-12 16:54:00,
2013-04-12 09:59:00,61.4,52.3,29.86,SW,223,3.5,3.5,72,0.00,CLR,,0.00,793.0,WeatherDisplay:10.37,2013-04-12 16:59:00,
2013-04-12 10:04:00,61.8,51.9,29.86,WNW,288,5.8,5.8,70,0.00,CLR,,0.00,833.0,WeatherDisplay:10.37,2013-04-12 17:04:00,
2013-04-12 10:09:00,61.4,51.9,29.86,WNW,287,4.6,4.6,71,0.00,BKN,,0.00,316.0,WeatherDisplay:10.37,2013-04-12 17:09:00,
2013-04-12 10:14:00,61.1,52.0,29.86,WNW,286,1.0,1.0,72,0.00,BKN,,0.00,313.0,WeatherDisplay:10.37,2013-04-12 17:14:00,
2013-04-12 10:19:00,61.3,52.2,29.86,WNW,286,2.3,2.3,72,0.00,BKN,,0.00,269.0,WeatherDisplay:10.37,2013-04-12 17:19:00,
2013-04-12 10:24:00,61.4,51.9,29.86,WNW,283,2.3,2.3,71,0.00,BKN,,0.00,339.0,WeatherDisplay:10.37,2013-04-12 17:24:00,
2013-04-12 10:29:00,61.9,52.4,29.86,West,266,2.0,2.0,71,0.00,CLR,,0.00,731.0,WeatherDisplay:10.37,2013-04-12 17:29:00,
2013-04-12 10:34:00,62.7,52.4,29.86,SW,221,3.5,3.5,69,0.00,CLR,,0.00,719.0,WeatherDisplay:10.37,2013-04-12 17:34:00,
2013-04-12 10:39:00,62.7,52.0,29.86,SSW,211,6.0,6.0,68,0.00,CLR,,0.00,715.0,WeatherDisplay:10.37,2013-04-12 17:39:00,
2013-04-12 10:44:00,62.6,52.3,29.86,WSW,254,6.9,6.9,69,0.00,CLR,,0.00,721.0,WeatherDisplay:10.37,2013-04-12 17:44:00,
2013-04-12 10:49:00,62.8,52.5,29.86,WSW,254,2.0,2.0,69,0.00,CLR,,0.00,729.0,WeatherDisplay:10.37,2013-04-12 17:49:00,
2013-04-12 10:55:00,63.2,52.9,29.86,West,280,3.5,3.5,69,0.00,CLR,,0.00,731.0,WeatherDisplay:10.37,2013-04-12 17:55:00,
2013-04-12 11:00:00,63.8,52.6,29.86,WSW,255,4.0,4.0,67,0.00,FEW,,0.00,751.0,WeatherDisplay:10.37,2013-04-12 18:00:00,
2013-04-12 11:05:00,63.9,52.7,29.86,NW,317,3.5,3.5,67,0.00,FEW,,0.00,752.0,WeatherDisplay:10.37,2013-04-12 18:05:00,
2013-04-12 11:10:00,64.4,53.2,29.86,South,187,4.0,4.0,67,0.00,FEW,,0.00,761.0,WeatherDisplay:10.37,2013-04-12 18:10:00,
2013-04-12 11:20:00,64.4,52.8,29.86,SSW,206,7.0,7.0,66,0.00,FEW,,0.00,772.0,WeatherDisplay:10.37,2013-04-12 18:20:00,
2013-04-12 11:25:00,64.8,53.2,29.86,WSW,252,6.0,6.0,66,0.00,FEW,,0.00,788.0,WeatherDisplay:10.37,2013-04-12 18:25:00,
2013-04-12 12:26:00,68.1,53.2,29.83,West,277,4.6,4.6,59,0.00,FEW,,0.00,846.0,WeatherDisplay:10.37,2013-04-12 19:26:00,
2013-04-12 12:27:00,68.1,53.2,29.83,West,277,4.6,4.6,59,0.00,FEW,,0.00,846.0,WeatherDisplay:10.37,2013-04-12 19:27:00,
2013-04-12 12:28:00,68.2,53.3,29.83,WSW,257,8.0,8.0,59,0.00,FEW,,0.00,846.0,WeatherDisplay:10.37,2013-04-12 19:28:00,
2013-04-12 12:33:00,68.2,52.9,29.83,WNW,290,9.2,9.2,58,0.00,FEW,,0.00,842.0,WeatherDisplay:10.37,2013-04-12 19:33:00,
2013-04-12 12:38:00,68.1,53.2,29.83,NE,44,3.5,3.5,59,0.00,FEW,,0.00,849.0,WeatherDisplay:10.37,2013-04-12 19:38:00,
2013-04-12 12:43:00,69.2,53.3,29.83,SSW,197,5.0,5.0,57,0.00,FEW,,0.00,849.0,WeatherDisplay:10.37,2013-04-12 19:43:00,
2013-04-12 12:48:00,69.7,53.3,29.83,WNW,302,5.8,5.8,56,0.00,FEW,,0.00,849.0,WeatherDisplay:10.37,2013-04-12 19:48:00,
2013-04-12 12:53:00,69.8,52.9,29.83,NW,311,5.8,5.8,55,0.00,FEW,,0.00,847.0,WeatherDisplay:10.37,2013-04-12 19:53:00,
2013-04-12 12:58:00,70.1,53.2,29.83,WNW,284,4.6,4.6,55,0.00,FEW,,0.00,847.0,WeatherDisplay:10.37,2013-04-12 19:58:00,
2013-04-12 13:03:00,69.9,53.0,29.82,South,186,3.5,3.5,55,0.00,FEW,,0.00,844.0,WeatherDisplay:10.37,2013-04-12 20:03:00,
2013-04-12 13:08:00,70.4,53.5,29.82,NNE,15,5.8,5.8,55,0.00,FEW,,0.00,842.0,WeatherDisplay:10.37,2013-04-12 20:08:00,
2013-04-12 13:13:00,71.5,54.0,29.82,WNW,282,9.0,9.0,54,0.00,FEW,,0.00,840.0,WeatherDisplay:10.37,2013-04-12 20:13:00,
2013-04-12 13:18:00,71.3,53.3,29.81,WNW,299,3.5,3.5,53,0.00,FEW,,0.00,837.0,WeatherDisplay:10.37,2013-04-12 20:18:00,
2013-04-12 13:23:00,71.4,53.4,29.81,South,172,4.6,4.6,53,0.00,FEW,,0.00,838.0,WeatherDisplay:10.37,2013-04-12 20:23:00,
2013-04-12 13:28:00,71.6,53.6,29.81,SW,216,4.6,4.6,53,0.00,FEW,,0.00,837.0,WeatherDisplay:10.37,2013-04-12 20:28:00,
2013-04-12 13:33:00,71.9,53.3,29.81,SSW,211,8.0,8.0,52,0.00,FEW,,0.00,835.0,WeatherDisplay:10.37,2013-04-12 20:33:00,
2013-04-12 13:38:00,72.2,53.1,29.81,SSE,153,4.6,4.6,51,0.00,FEW,,0.00,831.0,WeatherDisplay:10.37,2013-04-12 20:38:00,
2013-04-12 13:43:00,72.8,53.6,29.80,WNW,292,4.6,4.6,51,0.00,FEW,,0.00,823.0,WeatherDisplay:10.37,2013-04-12 20:43:00,
2013-04-12 13:48:00,72.8,53.6,29.80,SSW,198,10.4,10.4,51,0.00,FEW,,0.00,814.0,WeatherDisplay:10.37,2013-04-12 20:48:00,
2013-04-12 13:53:00,72.8,54.1,29.80,WSW,241,4.0,4.0,52,0.00,FEW,,0.00,810.0,WeatherDisplay:10.37,2013-04-12 20:53:00,
2013-04-12 13:58:00,73.1,54.9,29.80,SSW,206,8.1,8.1,53,0.00,SCT,,0.00,564.0,WeatherDisplay:10.37,2013-04-12 20:58:00,
2013-04-12 14:03:00,73.2,54.5,29.80,SSW,209,12.7,12.7,52,0.00,FEW,,0.00,796.0,WeatherDisplay:10.37,2013-04-12 21:03:00,
2013-04-12 14:08:00,73.0,54.3,29.80,SSW,199,9.2,9.2,52,0.00,FEW,,0.00,798.0,WeatherDisplay:10.37,2013-04-12 21:08:00,
2013-04-12 14:13:00,73.0,54.3,29.80,West,273,9.2,9.2,52,0.00,FEW,,0.00,795.0,WeatherDisplay:10.37,2013-04-12 21:13:00,
2013-04-12 14:18:00,72.9,54.2,29.80,SSW,205,11.5,11.5,52,0.00,FEW,,0.00,786.0,WeatherDisplay:10.37,2013-04-12 21:18:00,
2013-04-12 14:23:00,73.2,54.5,29.79,WSW,258,10.4,10.4,52,0.00,FEW,,0.00,779.0,WeatherDisplay:10.37,2013-04-12 21:23:00,
2013-04-12 14:28:00,72.4,53.8,29.79,WSW,252,10.4,10.4,52,0.00,FEW,,0.00,773.0,WeatherDisplay:10.37,2013-04-12 21:28:00,
2013-04-12 14:33:00,72.5,54.4,29.79,West,272,7.0,7.0,53,0.00,FEW,,0.00,765.0,WeatherDisplay:10.37,2013-04-12 21:33:00,
2013-04-12 14:38:00,72.9,54.2,29.79,WSW,258,11.5,11.5,52,0.00,FEW,,0.00,752.0,WeatherDisplay:10.37,2013-04-12 21:38:00,
2013-04-12 14:43:00,72.1,54.0,29.79,WSW,252,11.5,11.5,53,0.00,FEW,,0.00,749.0,WeatherDisplay:10.37,2013-04-12 21:43:00,
2013-04-12 14:48:00,72.6,54.0,29.79,WSW,242,8.1,8.1,52,0.00,FEW,,0.00,737.0,WeatherDisplay:10.37,2013-04-12 21:48:00,
2013-04-12 14:53:00,72.5,53.9,29.79,West,262,10.4,10.4,52,0.00,FEW,,0.00,733.0,WeatherDisplay:10.37,2013-04-12 21:53:00,
2013-04-12 14:58:00,72.7,54.1,29.79,SW,232,8.1,8.1,52,0.00,FEW,,0.00,719.0,WeatherDisplay:10.37,2013-04-12 21:58:00,
2013-04-12 15:03:00,72.9,53.7,29.78,SW,226,8.1,8.1,51,0.00,FEW,,0.00,707.0,WeatherDisplay:10.37,2013-04-12 22:03:00,
2013-04-12 15:08:00,72.2,53.6,29.78,WSW,248,8.1,8.1,52,0.00,CLR,,0.00,696.0,WeatherDisplay:10.37,2013-04-12 22:08:00,
2013-04-12 15:13:00,72.1,54.0,29.78,WNW,298,10.4,10.4,53,0.00,CLR,,0.00,686.0,WeatherDisplay:10.37,2013-04-12 22:13:00,
2013-04-12 15:18:00,71.8,53.7,29.78,West,259,11.5,11.5,53,0.00,CLR,,0.00,673.0,WeatherDisplay:10.37,2013-04-12 22:18:00,
2013-04-12 15:23:00,71.3,53.8,29.78,WSW,256,9.2,9.2,54,0.00,CLR,,0.00,661.0,WeatherDisplay:10.37,2013-04-12 22:23:00,
2013-04-12 15:28:00,71.6,53.6,29.78,West,269,10.4,10.4,53,0.00,CLR,,0.00,654.0,WeatherDisplay:10.37,2013-04-12 22:28:00,
2013-04-12 15:33:00,71.6,53.6,29.78,WNW,298,11.5,11.5,53,0.00,CLR,,0.00,642.0,WeatherDisplay:10.37,2013-04-12 22:33:00,
2013-04-12 15:38:00,71.1,53.6,29.78,WNW,289,11.5,11.5,54,0.00,CLR,,0.00,631.0,WeatherDisplay:10.37,2013-04-12 22:38:00,
2013-04-12 15:43:00,70.6,53.6,29.78,WSW,253,11.5,11.5,55,0.00,CLR,,0.00,617.0,WeatherDisplay:10.37,2013-04-12 22:43:00,
2013-04-12 15:48:00,70.6,53.6,29.78,West,280,9.2,9.2,55,0.00,CLR,,0.00,605.0,WeatherDisplay:10.37,2013-04-12 22:48:00,
2013-04-12 15:53:00,70.6,53.6,29.78,WNW,284,10.4,10.4,55,0.00,CLR,,0.00,587.0,WeatherDisplay:10.37,2013-04-12 22:53:00,
2013-04-12 15:58:00,70.5,53.6,29.78,WSW,252,11.5,11.5,55,0.00,CLR,,0.00,575.0,WeatherDisplay:10.37,2013-04-12 22:58:00,
2013-04-12 16:03:00,70.1,53.7,29.78,SW,222,8.1,8.1,56,0.00,CLR,,0.00,563.0,WeatherDisplay:10.37,2013-04-12 23:03:00,
2013-04-12 16:08:00,70.6,53.6,29.78,WNW,282,10.4,10.4,55,0.00,CLR,,0.00,550.0,WeatherDisplay:10.37,2013-04-12 23:08:00,
2013-04-12 16:13:00,70.3,53.4,29.78,West,279,11.5,11.5,55,0.00,CLR,,0.00,533.0,WeatherDisplay:10.37,2013-04-12 23:13:00,
2013-04-12 16:18:00,70.1,53.7,29.77,WNW,291,9.2,9.2,56,0.00,CLR,,0.00,517.0,WeatherDisplay:10.37,2013-04-12 23:18:00,
2013-04-12 16:23:00,70.0,53.6,29.77,West,269,10.4,10.4,56,0.00,CLR,,0.00,503.0,WeatherDisplay:10.37,2013-04-12 23:23:00,
2013-04-12 16:28:00,69.9,54.0,29.77,WSW,256,11.5,11.5,57,0.00,CLR,,0.00,487.0,WeatherDisplay:10.37,2013-04-12 23:28:00,
2013-04-12 16:33:00,69.3,53.4,29.77,WSW,251,10.4,10.4,57,0.00,CLR,,0.00,471.0,WeatherDisplay:10.37,2013-04-12 23:33:00,
2013-04-12 16:38:00,69.4,53.5,29.77,West,261,10.4,10.4,57,0.00,CLR,,0.00,459.0,WeatherDisplay:10.37,2013-04-12 23:38:00,
2013-04-12 16:43:00,69.1,53.2,29.77,West,267,12.0,12.0,57,0.00,CLR,,0.00,443.0,WeatherDisplay:10.37,2013-04-12 23:43:00,
2013-04-12 16:48:00,69.0,54.1,29.77,West,278,11.5,11.5,59,0.00,CLR,,0.00,427.0,WeatherDisplay:10.37,2013-04-12 23:48:00,
2013-04-12 16:53:00,68.6,53.7,29.77,West,266,10.0,10.0,59,0.00,CLR,,0.00,411.0,WeatherDisplay:10.37,2013-04-12 23:53:00,
2013-04-12 16:58:00,68.6,53.7,29.77,WSW,253,11.5,11.5,59,0.00,CLR,,0.00,397.0,WeatherDisplay:10.37,2013-04-12 23:58:00,
2013-04-12 17:03:00,68.8,53.9,29.77,West,260,11.5,11.5,59,0.00,CLR,,0.00,378.0,WeatherDisplay:10.37,2013-04-13 00:03:00,
2013-04-12 17:08:00,68.1,53.7,29.77,West,261,11.5,11.5,60,0.00,CLR,,0.00,360.0,WeatherDisplay:10.37,2013-04-13 00:08:00,
2013-04-12 17:13:00,68.1,54.1,29.77,WSW,240,6.9,6.9,61,0.00,CLR,,0.00,346.0,WeatherDisplay:10.37,2013-04-13 00:13:00,
2013-04-12 17:18:00,68.4,53.5,29.77,NW,309,9.2,9.2,59,0.00,CLR,,0.00,330.0,WeatherDisplay:10.37,2013-04-13 00:18:00,
2013-04-12 17:23:00,68.4,54.0,29.77,SW,215,9.2,9.2,60,0.00,CLR,,0.00,315.0,WeatherDisplay:10.37,2013-04-13 00:23:00,
2013-04-12 17:28:00,68.1,53.7,29.77,WNW,298,11.5,11.5,60,0.00,CLR,,0.00,297.0,WeatherDisplay:10.37,2013-04-13 00:28:00,
2013-04-12 17:33:00,67.3,53.4,29.77,West,274,13.0,13.0,61,0.00,CLR,,0.00,279.0,WeatherDisplay:10.37,2013-04-13 00:33:00,
2013-04-12 17:38:00,67.2,53.7,29.77,WSW,254,11.5,11.5,62,0.00,CLR,,0.00,262.0,WeatherDisplay:10.37,2013-04-13 00:38:00,
2013-04-12 17:43:00,66.8,53.8,29.77,WSW,249,9.2,9.2,63,0.00,CLR,,0.00,244.0,WeatherDisplay:10.37,2013-04-13 00:43:00,
2013-04-12 17:48:00,66.9,53.9,29.77,WSW,255,9.2,9.2,63,0.00,CLR,,0.00,232.0,WeatherDisplay:10.37,2013-04-13 00:48:00,
2013-04-12 17:53:00,66.8,53.8,29.77,West,269,9.2,9.2,63,0.00,CLR,,0.00,214.0,WeatherDisplay:10.37,2013-04-13 00:53:00,
2013-04-12 17:58:00,66.8,53.8,29.78,WSW,249,10.4,10.4,63,0.00,CLR,,0.00,197.0,WeatherDisplay:10.37,2013-04-13 00:58:00,
2013-04-12 18:03:00,66.3,53.8,29.78,West,268,9.2,9.2,64,0.00,CLR,,0.00,181.0,WeatherDisplay:10.37,2013-04-13 01:03:00,
2013-04-12 18:08:00,65.9,53.4,29.78,WNW,288,8.1,8.1,64,0.00,CLR,,0.00,162.0,WeatherDisplay:10.37,2013-04-13 01:08:00,
2013-04-12 18:13:00,65.9,53.4,29.78,WSW,257,7.0,7.0,64,0.00,FEW,,0.00,144.0,WeatherDisplay:10.37,2013-04-13 01:13:00,
2013-04-12 18:19:00,66.0,53.5,29.77,West,269,8.1,8.1,64,0.00,FEW,,0.00,125.0,WeatherDisplay:10.37,2013-04-13 01:19:00,
2013-04-12 18:24:00,65.8,53.3,29.78,NW,309,9.2,9.2,64,0.00,FEW,,0.00,107.0,WeatherDisplay:10.37,2013-04-13 01:24:00,
2013-04-12 18:29:00,65.3,53.2,29.78,West,263,9.2,9.2,65,0.00,SCT,,0.00,90.0,WeatherDisplay:10.37,2013-04-13 01:29:00,
2013-04-12 18:34:00,65.3,53.2,29.78,West,269,11.5,11.5,65,0.00,SCT,,0.00,70.0,WeatherDisplay:10.37,2013-04-13 01:34:00,
2013-04-12 18:39:00,65.1,53.9,29.78,SW,236,6.0,6.0,67,0.00,SCT,,0.00,60.0,WeatherDisplay:10.37,2013-04-13 01:39:00,
2013-04-12 18:44:00,64.7,53.5,29.78,West,273,10.4,10.4,67,0.00,BKN,,0.00,44.0,WeatherDisplay:10.37,2013-04-13 01:44:00,
2013-04-12 18:49:00,64.1,53.3,29.78,West,271,11.5,11.5,68,0.00,SCT,,0.00,37.0,WeatherDisplay:10.37,2013-04-13 01:49:00,
2013-04-12 18:54:00,63.9,53.5,29.79,WNW,298,11.5,11.5,69,0.00,BKN,,0.00,26.0,WeatherDisplay:10.37,2013-04-13 01:54:00,
2013-04-12 18:59:00,63.6,53.6,29.79,WSW,258,7.0,7.0,70,0.00,BKN,,0.00,18.0,WeatherDisplay:10.37,2013-04-13 01:59:00,
2013-04-12 19:04:00,63.2,53.3,29.79,WNW,283,9.2,9.2,70,0.00,BKN,,0.00,14.0,WeatherDisplay:10.37,2013-04-13 02:04:00,
2013-04-12 19:09:00,62.9,53.4,29.79,West,273,9.2,9.2,71,0.00,BKN,,0.00,12.0,WeatherDisplay:10.37,2013-04-13 02:09:00,
2013-04-12 19:14:00,62.6,53.4,29.79,West,261,10.0,10.0,72,0.00,SCT,,0.00,7.0,WeatherDisplay:10.37,2013-04-13 02:14:00,
2013-04-12 19:19:00,62.3,53.5,29.80,West,271,10.4,10.4,73,0.00,CLR,,0.00,5.0,WeatherDisplay:10.37,2013-04-13 02:19:00,
2013-04-12 19:24:00,62.1,53.3,29.80,WSW,248,8.1,8.1,73,0.00,CLR,,0.00,0.0,WeatherDisplay:10.37,2013-04-13 02:24:00,
2013-04-12 19:29:00,61.7,53.3,29.80,West,267,5.8,5.8,74,0.00,CLR,,0.00,0.0,WeatherDisplay:10.37,2013-04-13 02:29:00,
2013-04-12 19:34:00,61.6,53.2,29.80,West,259,7.0,7.0,74,0.00,CLR,,0.00,0.0,WeatherDisplay:10.37,2013-04-13 02:34:00,
2013-04-12 19:39:00,61.3,53.3,29.80,West,277,7.0,7.0,75,0.00,CLR,,0.00,0.0,WeatherDisplay:10.37,2013-04-13 02:39:00,
2013-04-12 19:44:00,61.2,53.2,29.80,West,261,8.0,8.0,75,0.00,CLR,,0.00,0.0,WeatherDisplay:10.37,2013-04-13 02:44:00,
2013-04-12 19:49:00,61.0,53.0,29.80,West,259,5.8,5.8,75,0.00,CLR,,0.00,0.0,WeatherDisplay:10.37,2013-04-13 02:49:00,
2013-04-12 19:54:00,60.9,53.3,29.81,West,261,6.0,6.0,76,0.00,CLR,,0.00,0.0,WeatherDisplay:10.37,2013-04-13 02:54:00,
2013-04-12 19:59:00,60.6,53.0,29.81,West,279,6.9,6.9,76,0.00,CLR,,0.00,0.0,WeatherDisplay:10.37,2013-04-13 02:59:00,
2013-04-12 20:04:00,60.5,53.3,29.81,WSW,237,3.5,3.5,77,0.00,CLR,,0.00,0.0,WeatherDisplay:10.37,2013-04-13 03:04:00,
2013-04-12 20:09:00,60.4,53.2,29.82,SW,221,3.5,3.5,77,0.00,CLR,,0.00,0.0,WeatherDisplay:10.37,2013-04-13 03:09:00,
2013-04-12 20:14:00,60.2,53.3,29.82,WSW,250,5.8,5.8,78,0.00,CLR,,0.00,0.0,WeatherDisplay:10.37,2013-04-13 03:14:00,
2013-04-12 20:19:00,60.1,53.2,29.82,WSW,251,3.0,3.0,78,0.00,CLR,,0.00,0.0,WeatherDisplay:10.37,2013-04-13 03:19:00,
2013-04-12 20:24:00,59.9,53.0,29.83,West,259,5.0,5.0,78,0.00,CLR,,0.00,0.0,WeatherDisplay:10.37,2013-04-13 03:24:00,
2013-04-12 20:29:00,59.6,53.1,29.83,West,279,4.6,4.6,79,0.00,CLR,,0.00,0.0,WeatherDisplay:10.37,2013-04-13 03:29:00,
2013-04-12 20:34:00,59.6,53.1,29.83,West,267,4.0,4.0,79,0.00,CLR,,0.00,0.0,WeatherDisplay:10.37,2013-04-13 03:34:00,
2013-04-12 20:39:00,59.4,52.9,29.84,West,269,5.0,5.0,79,0.00,CLR,,0.00,0.0,WeatherDisplay:10.37,2013-04-13 03:39:00,
2013-04-12 20:44:00,59.3,53.1,29.84,WSW,256,4.0,4.0,80,0.00,CLR,,0.00,0.0,WeatherDisplay:10.37,2013-04-13 03:44:00,
2013-04-12 20:49:00,59.2,53.0,29.84,WSW,242,3.5,3.5,80,0.00,CLR,,0.00,0.0,WeatherDisplay:10.37,2013-04-13 03:49:00,
2013-04-12 20:54:00,59.1,52.9,29.84,WSW,242,3.5,3.5,80,0.00,CLR,,0.00,0.0,WeatherDisplay:10.37,2013-04-13 03:54:00,
2013-04-12 20:59:00,58.9,53.1,29.85,WSW,246,3.5,3.5,81,0.00,CLR,,0.00,0.0,WeatherDisplay:10.37,2013-04-13 03:59:00,
2013-04-12 21:00:00,59.0,53.2,29.85,WSW,246,3.5,3.5,81,0.00,CLR,,0.00,0.0,WeatherDisplay:10.37,2013-04-13 04:00:00,
2013-04-12 21:02:00,59.0,53.2,29.85,WSW,246,2.3,2.3,81,0.00,CLR,,0.00,0.0,WeatherDisplay:10.37,2013-04-13 04:02:00,
2013-04-12 21:07:00,58.9,52.7,29.85,WSW,242,4.0,4.0,80,0.00,CLR,,0.00,0.0,WeatherDisplay:10.37,2013-04-13 04:07:00,
2013-04-12 21:12:00,58.8,53.0,29.85,WSW,242,4.0,4.0,81,0.00,CLR,,0.00,0.0,WeatherDisplay:10.37,2013-04-13 04:12:00,
2013-04-12 21:17:00,58.7,52.9,29.85,WSW,242,2.3,2.3,81,0.00,CLR,,0.00,0.0,WeatherDisplay:10.37,2013-04-13 04:17:00,
2013-04-12 21:22:00,58.7,52.9,29.85,WSW,243,3.5,3.5,81,0.00,CLR,,0.00,0.0,WeatherDisplay:10.37,2013-04-13 04:22:00,
2013-04-12 21:28:00,58.6,53.1,29.86,WSW,244,4.0,4.0,82,0.00,CLR,,0.00,0.0,WeatherDisplay:10.37,2013-04-13 04:28:00,
2013-04-12 21:33:00,58.5,53.0,29.86,WSW,244,3.5,3.5,82,0.00,CLR,,0.00,0.0,WeatherDisplay:10.37,2013-04-13 04:33:00,
2013-04-12 21:38:00,58.5,53.0,29.86,WSW,244,3.5,3.5,82,0.00,CLR,,0.00,0.0,WeatherDisplay:10.37,2013-04-13 04:38:00,
2013-04-12 21:43:00,58.4,52.9,29.86,WSW,244,3.5,3.5,82,0.00,CLR,,0.00,0.0,WeatherDisplay:10.37,2013-04-13 04:43:00,
2013-04-12 21:48:00,58.4,52.9,29.87,WSW,244,2.3,0.0,82,0.00,CLR,,0.00,0.0,WeatherDisplay:10.37,2013-04-13 04:48:00,
2013-04-12 21:53:00,58.4,52.9,29.87,WSW,244,3.5,3.5,82,0.00,CLR,,0.00,0.0,WeatherDisplay:10.37,2013-04-13 04:53:00,
2013-04-12 21:58:00,58.3,52.8,29.87,WSW,244,2.3,2.3,82,0.00,CLR,,0.00,0.0,WeatherDisplay:10.37,2013-04-13 04:58:00,
2013-04-12 22:03:00,58.2,52.7,29.87,WSW,244,1.1,1.1,82,0.00,CLR,,0.00,0.0,WeatherDisplay:10.37,2013-04-13 05:03:00,
2013-04-12 22:08:00,58.2,52.7,29.87,WSW,244,1.1,0.0,82,0.00,CLR,,0.00,0.0,WeatherDisplay:10.37,2013-04-13 05:08:00,
2013-04-12 22:13:00,58.1,53.0,29.87,WSW,244,3.5,3.5,83,0.00,CLR,,0.00,0.0,WeatherDisplay:10.37,2013-04-13 05:13:00,
2013-04-12 22:18:00,58.1,53.0,29.88,WSW,244,2.3,2.3,83,0.00,CLR,,0.00,0.0,WeatherDisplay:10.37,2013-04-13 05:18:00,
2013-04-12 22:23:00,58.1,53.0,29.88,WSW,244,1.1,1.1,83,0.00,CLR,,0.00,0.0,WeatherDisplay:10.37,2013-04-13 05:23:00,
2013-04-12 22:28:00,58.1,53.0,29.88,WSW,244,2.3,2.3,83,0.00,CLR,,0.00,0.0,WeatherDisplay:10.37,2013-04-13 05:28:00,
2013-04-12 22:33:00,58.0,52.9,29.88,WSW,244,2.3,2.3,83,0.00,CLR,,0.00,0.0,WeatherDisplay:10.37,2013-04-13 05:33:00,
2013-04-12 22:38:00,58.0,52.9,29.88,WSW,244,1.1,1.1,83,0.00,CLR,,0.00,0.0,WeatherDisplay:10.37,2013-04-13 05:38:00,
2013-04-12 22:43:00,58.0,52.9,29.88,WSW,244,1.1,0.0,83,0.00,CLR,,0.00,0.0,WeatherDisplay:10.37,2013-04-13 05:43:00,
2013-04-12 22:48:00,57.9,52.8,29.88,WSW,244,1.1,1.1,83,0.00,CLR,,0.00,0.0,WeatherDisplay:10.37,2013-04-13 05:48:00,
2013-04-12 22:53:00,57.9,52.8,29.88,WSW,244,0.0,0.0,83,0.00,CLR,,0.00,0.0,WeatherDisplay:10.37,2013-04-13 05:53:00,
2013-04-12 22:58:00,57.7,52.6,29.88,WSW,244,0.0,0.0,83,0.00,CLR,,0.00,0.0,WeatherDisplay:10.37,2013-04-13 05:58:00,
2013-04-12 23:03:00,57.7,52.6,29.88,WSW,244,0.0,0.0,83,0.00,CLR,,0.00,0.0,WeatherDisplay:10.37,2013-04-13 06:03:00,
2013-04-12 23:08:00,57.6,52.8,29.88,WSW,244,1.0,0.0,84,0.00,CLR,,0.00,0.0,WeatherDisplay:10.37,2013-04-13 06:08:00,
2013-04-12 23:13:00,57.6,52.8,29.88,WSW,244,0.0,0.0,84,0.00,CLR,,0.00,0.0,WeatherDisplay:10.37,2013-04-13 06:13:00,
2013-04-12 23:18:00,57.6,52.8,29.88,WSW,244,0.0,0.0,84,0.00,CLR,,0.00,0.0,WeatherDisplay:10.37,2013-04-13 06:18:00,
2013-04-12 23:23:00,57.6,52.8,29.88,WSW,244,0.0,0.0,84,0.00,CLR,,0.00,0.0,WeatherDisplay:10.37,2013-04-13 06:23:00,
2013-04-12 23:28:00,57.6,52.8,29.89,WSW,244,1.1,0.0,84,0.00,CLR,,0.00,0.0,WeatherDisplay:10.37,2013-04-13 06:28:00,
2013-04-12 23:33:00,57.6,52.8,29.89,WSW,244,1.1,0.0,84,0.00,CLR,,0.00,0.0,WeatherDisplay:10.37,2013-04-13 06:33:00,
2013-04-12 23:38:00,57.7,52.9,29.89,WSW,244,1.1,0.0,84,0.00,CLR,,0.00,0.0,WeatherDisplay:10.37,2013-04-13 06:38:00,
2013-04-12 23:43:00,57.8,53.0,29.89,WSW,244,1.1,0.0,84,0.00,CLR,,0.00,0.0,WeatherDisplay:10.37,2013-04-13 06:43:00,
2013-04-12 23:49:00,57.9,53.1,29.89,WSW,244,3.0,3.0,84,0.00,CLR,,0.00,0.0,WeatherDisplay:10.37,2013-04-13 06:49:00,
2013-04-12 23:54:00,58.0,53.2,29.90,WSW,244,2.3,2.3,84,0.00,CLR,,0.00,0.0,WeatherDisplay:10.37,2013-04-13 06:54:00,
2013-04-12 23:59:00,58.1,53.0,29.90,WSW,244,3.5,3.5,83,0.00,CLR,,0.00,0.0,WeatherDisplay:10.37,2013-04-13 06:59:00,